Погода Колпашево

Погода Колпашево : погода сейчас, прогноз погоды и архив. Всё, что Вы хотите узнать о погоде Колпашево!

Хотите узнать прогноз погоды Колпашево? Тогда Вам сюда: Погода Колпашево

Поиск расширенной информации на нашем сайте:

Другие новости

Новости СМИ2

Главная страница сайта

Новости сайта

03.07.2017

Напоминаем, что на нашем специализированном сайте Метеоцентр.Азия вы можете получить высокодетализированные автоматические прогнозы погоды по пунктам России, СНГ и мира в авиационном формате (включающие направление и скорость ветра, видимость, явления погоды, количество и форму облачности, нижнюю и верхнюю границу облачности).

Рекомендуем: Видео и фото на свадьбу bachinskiy.kiev.ua.

Погода Колпашево - сегодня

Время (UTC), дата Ветер
(°,м/с) 
Видим.   Явления Облачность Т
(°С)
Тd
(°С)
f(%) Тe
(°С)
Pmin
(гПа)
dP
(гПа)
Po
(мм)
O2
(г/м3)
Тmin Tmax R s Состояние
почвы
21 16.02.18 тихо ()   4000 м  слаб. ливневой снег  8/3 600 м кучево-дожд., средняя 
[Cb cap|Ac trans]
-20.4 -22.5 83 -20  1035.9  0.4  769  337           
00 17.02.18 170 (Ю) 20000 м  {ливн. осадки}  3/0 средняя 
[Ac trans]
-21.4 -23.6 82 -22  1036.1  0.1  769  338  -22.1    0.0  58  равномерный
сухой снег
100% 
03 17.02.18 170 (Ю) 10 км  слаб. ливневой снег  10/5 300 м кучево-дожд., средняя 
[Cb cap|Ac trans]
-19.1 -21.3 83 -19  1036.5  0.5  769  335           
06 17.02.18 170 (Ю) 10 км  слаб. ливневой снег  9/4 600 м кучево-дожд., средняя 
[Cb cap|Ac trans]
-15.3 -18.5 76 -18  1036.2  -0.1  769  330           
09 17.02.18 170 (Ю) 20000 м  {ливн. осадки}  8/3 600 м кучево-дожд., средняя, верхняя 
[Cb cap|Ac trans|Ci fib]
-10.9 -16.8 62 -13  1035.2  -0.8  769  324           
12 17.02.18 160 (Ю) 20000 м  {ливн. осадки}  8/0 верхняя 
[Ci fib]
-12.1 -17 67 -14  1034.5  -0.8  768  325    -10.7  0.0     
15 17.02.18 180 (Ю) 20000 м    6/0 средняя, верхняя 
[Ac trans|Ci fib]
-12.5 -17.4 67 -12  1034.3  -0.2  768  326           
18 17.02.18 180 (Ю) 20000 м    4/0 средняя 
[Ac trans]
-14.1 -17.3 77 -14  1034.3  768  328           
00 18.02.18 170 (Ю) 4000 м  слаб. ливневой снег  8/8 360 м кучево-дожд., средняя 
[Cb cap|Ac trans]
-17.7 -20 82 -22  1032.7  -0.9  767  332  -17.7    0.0  59  равномерный
сухой снег
100% 
06 18.02.18 160 (Ю) 10 км  слаб. ливневой снег  10/4 300 м кучево-дожд., верхняя 
[Cb cap|Ci sp]
-15.4 -19.2 73 -19  1031.7  -1  766  329           
09 18.02.18 160 (Ю) 10 км  слаб. ливневой снег  10/8 300 м кучево-дожд., верхняя 
[Cb cap|Ci sp]
-13.1 -16.9 73 -17  1030.5  -1.1  765  325           
12 18.02.18 170 (Ю) 4000 м  слаб. ливневой снег  10/8 300 м кучево-дожд., верхняя 
[Cb cap|Ci sp]
-12.9 -15.3 82 -15  1029.8  -0.6  765  325    -12.6       
15 18.02.18 160 (Ю) 20000 м  {ливн. осадки}  ясно 
-15.6 -17.5 85 -18  1030.2  0.2  765  328           
18 18.02.18 170 (Ю) 4000 м  слаб. ливневой снег  8/5 300 м кучево-дожд., средняя 
[Cb cap|Ac trans]
-16.1 -17.9 86 -16  1029.6  -0.5  764  329           
21 18.02.18 180 (Ю) 4000 м  слаб. ливневой снег  6/6 300 м кучево-дожд. 
[Cb cap]
-16.8 -18.8 84 -17  1029.2  -0.5  764  330           
00 19.02.18 190 (Ю) 4000 м  слаб. ливневой снег  8/8 300 м кучево-дожд. 
[Cb cap]
-16.5 -18.6 84 -17  1028.9  -0.2  764  329  -16.9    0.4  60  равномерный
сухой снег
100% 
03 19.02.18 180 (Ю) 10 км  слаб. ливневой снег  9/9 300 м кучево-дожд. 
[Cb cap]
-16.4 -18.7 82 -19  1028.8  -0.1  764  329           
06 19.02.18 180 (Ю) 10 км  слаб. ливневой снег  8/8 300 м кучево-дожд. 
[Cb cap]
-13.1 -16.4 76 -15  1028.5  -0.3  764  325           
09 19.02.18 190 (Ю) 10 км  слаб. ливневой снег  9/9 300 м кучево-дожд. 
[Cb cap]
-9.9 -13 78 -12  1028.5  0.2  764  321           
12 19.02.18 180 (Ю) 4000 м  слаб. ливневой снег  10/10 480 м кучево-дожд. 
[Cb cap]
-8.8 -10.4 88 -10  1028.2  -0.3  764  319    -8.8  0.8     
00 20.02.18 210 (ЮЗ) 4000 м  слаб. ливневой снег  10/10 500 м кучево-дожд. 
[Cb cap]
-9 -10 92 -9  1028.4  0.6  764  319  -9       
06 20.02.18 240 (ЮЗ) 10 км  слаб. ливневой снег  8/8 300 м кучево-дожд. 
[Cb cap]
-6.4 -8.9 82 -8  1028.6  764  316           
09 20.02.18 160 (Ю) 10 км  слаб. ливневой снег  8/8 300 м кучево-дожд. 
[Cb cap]
-5.5 -8 83 -7  1028.1  -0.4  764  315           
12 20.02.18 170 (Ю) 4000 м  слаб. ливневой снег  10/10 600 м кучево-дожд. 
[Cb cap]
-6.6 -8 90 -8  1027.6  -0.6  763  316    -5.5     
15 20.02.18 200 (Ю) 4000 м  слаб. ливневой снег  5/5 300 м кучево-дожд. 
[Cb cap]
-8.2 -10.1 86 -8  1026.9  -0.7  763  318           
Время (UTC), дата Ветер
(°,м/с) 
Видим.   Явления Облачность Т
(°С)
Тd
(°С)
f(%) Тe
(°С)
Pmin
(гПа)
dP
(гПа)
Po
(мм)
O2
(г/м3)
Тmin Tmax R s Состояние
почвы

Для получения пояснительной информации подведите курсор к названию столбца.

ПОГОДА Колпашево - архив

Всё, что Вы хотите узнать о погоде Колпашево - удобно и подробно!

Выберите нужную дату (начиная с 1 января 2015* года) и нажмите кнопку "Найти".
Будут отображены архивные сводки погоды по пункту Колпашево, начиная с указанной даты.


Отображать данные в формате CSV (для использования в таблицах Excel)


Внимание! Наш архив погоды предназначен исключительно для личного некоммерческого использования в познавательных целях. Если Вам необходимы официальные справки о состоянии погоды (для производственных, юридических, коммерческих и т.п. целей), обращайтесь в органы Росгидромета.

*Примечание: данная дата относится к архиву по метеостанциям СССР (Россия, СНГ, Балтия).
Архив по метеостанциям Зарубежной Европы и Азии (кроме Китая) хранится 10 дней, по другим регионам земного шара (Китай, Африка, Америка, Австралия, Океания) - 1 день.

Колпашево - район местоположения метеостанции


Название, широта, долгота, высота метеостанции:
Колпашево 58.3°ш. 82.9°д. 75 м над ур. моря [Российская Федерация]

Дополнительная информация

В oтличие oт бoльшинства пoгoдных сайтoв мы публикуем пoдрoбную метеoинфoрмацию в детальнoм прoфессиoнальнoм фoрмате.

Характеристики температуры и влажнoсти вoздуха измеряются на высoте 2 м в тени вдали oт зданий и деревьев.
Скoрoсть ветра измеряется на высoте 10 м (на урoвне рoста челoвека скoрoсть ветра ниже в 1.5-2 раза). Если метеoстанция нахoдится в гoрoде или в лесу, тo скoрoсть ветра занижена на 2-4 м/с пo сравнению с oткрытым местoм. Скoрoсть ветра над акватoриями крупных рек и oзёр, а также на вершинах хoлмoв на 2-5 м/с выше, чем в oбычных услoвиях.
Атмoсфернoе давление в разных тoчках местнoсти мoжет значительнo oтличаться oт давления на метеoстанции, в зависимoсти oт услoвий рельефа (при пoдъёме на 10 м давление пoнижается примернo на 1 мм рт.ст.).